Temp
41 42 44 46 49 54 68 72 73 74 73 72 70 67 66 67 64 64 67 64 65 67 67 66 64 66 65 64 62 64 61 60 56 59 64 65 61 60 60 61 62 62 55
40 41 42 44 46 48 51 60 70 71 70 72 68 69 69 66 66 60 59 62 64 66 66 63 62 65 65 65 63 60 60 61 59 56 61 59 60 60 60 59 61 63 55
39 39 40 41 43 44 45 49 61 66 65 64 68 68 68 67 65 63 61 60 64 67 67 64 62 63 61 61 62 60 61 60 60 57 55 59 59 59 58 56 50 47 46
38 37 36 38 40 42 42 44 45 51 62 62 65 66 66 66 67 67 64 62 64 65 64 63 63 62 61 61 60 60 60 59 58 57 56 55 56 58 57 47 46 47 44
35 34 33 35 38 40 40 40 41 40 43 52 59 56 58 57 58 62 62 60 60 61 58 57 50 45 42 44 55 59 58 57 56 55 54 55 55 53 50 50 46 42 42
33 33 35 36 35 36 37 38 37 38 37 39 41 45 44 44 39 41 54 56 54 53 48 47 46 43 43 38 40 42 50 56 55 55 54 54 54 53 51 47 42 39 36
33 33 33 33 33 33 35 35 35 36 36 34 35 37 37 38 38 41 42 46 42 42 43 43 44 43 42 42 38 37 36 36 42 56 54 54 54 54 52 45 44 43 39
33 33 33 33 32 32 32 32 32 33 33 32 32 33 35 36 37 38 38 39 38 37 37 38 38 40 39 40 38 34 33 33 34 37 40 34 37 44 51 49 45 33 34
32 32 32 33 33 33 32 31 31 30 30 30 31 31 32 33 35 36 37 35 34 33 34 35 36 36 35 38 35 32 32 31 33 34 34 34 35 36 40 41 36 36 32
31 31 33 33 33 32 32 32 32 31 29 29 29 29 31 31 33 34 35 34 31 31 32 32 33 33 34 35 34 32 28 27 30 30 29 29 31 32 33 35 39 38 31
33 33 33 34 33 33 33 33 33 32 32 30 29 28 28 29 30 33 33 31 30 30 29 29 31 32 33 32 31 29 27 29 28 27 26 26 26 27 28 30 32 34 31
34 33 33 32 33 34 33 33 33 33 32 32 31 30 31 29 30 30 30 30 30 28 27 29 30 31 31 31 29 30 29 28 27 25 24 23 23 23 25 27 28 30 31
36 33 33 33 33 33 32 31 31 33 32 31 31 29 29 31 31 31 30 29 29 26 27 28 29 30 30 29 29 29 28 27 26 24 23 24 24 26 26 26 26 27 28
38 37 37 36 34 33 33 33 30 29 31 30 29 29 28 28 29 31 32 31 31 31 31 31 29 29 29 28 28 28 27 27 25 24 24 25 27 27 26 26 24 24 23
38 37 38 37 36 34 31 30 29 29 29 27 28 27 26 25 27 29 29 29 30 31 31 32 31 30 29 29 29 29 29 29 28 27 26 25 25 26 26 27 27 26 22
36 37 35 37 37 36 34 31 29 29 29 29 29 29 29 29 29 30 30 30 30 31 31 29 29 29 28 28 27 28 29 28 29 29 29 29 29 28 27 28 28 28 26
33 34 35 34 34 33 33 33 31 29 28 28 28 28 28 28 28 29 31 31 31 33 29 28 27 27 27 27 28 28 27 29 30 30 29 28 28 29 29 28 29 28 27
31 31 32 32 31 31 31 31 31 30 29 29 28 27 27 28 29 29 31 32 29 29 28 27 26 27 28 28 29 28 29 29 29 30 29 29 29 29 28 28 28 28 28
30 30 32 32 31 31 32 31 31 30 30 29 29 29 31 29 30 30 30 29 27 26 27 27 27 26 27 26 26 25 25 26 27 27 28 28 28 28 26 26 25 26 27
33 30 31 33 32 32 32 32 31 30 30 29 26 23 26 31 28 27 27 27 27 27 27 27 26 26 26 26 25 26 26 25 26 26 26 27 27 27 26 25 26 25 26
32 33 31 32 32 31 31 31 31 30 29 28 26 23 21 27 26 26 26 24 25 25 24 26 25 24 24 24 25 24 24 24 24 24 24 24 25 24 26 25 25 24 24
31 31 31 31 31 29 29 31 29 28 28 27 27 26 25 25 25 25 23 22 23 24 24 24 23 22 22 22 22 21 21 21 22 22 22 22 23 23 24 23 23 22 22
29 28 29 29 28 27 28 28 27 26 26 26 26 24 24 23 22 22 21 20 21 20 20 21 20 20 20 20 20 21 20 18 19 21 22 22 23 22 22 21 21 21 20
28 27 26 26 25 25 24 24 25 25 24 24 24 24 23 22 21 21 20 19 19 19 19 18 17 15 17 19 19 18 17 17 18 17 19 21 19 21 21 20 19 17 17
25 24 24 23 22 22 22 22 22 23 23 23 22 23 23 22 22 22 21 20 18 18 17 17 17 15 13 13 12 10 8 8 10 10 18 18 17 17 18 19 18 17 16
24 24 23 23 22 21 21 20 20 21 21 21 21 21 21 21 21 21 21 19 18 18 16 18 17 14 13 15 12 8 7 7 9 8 14 17 17 16 16 15 13 17 15
MSLP
1007.70 1006.17 1004.65 1003.05 1001.54 1000.03 997.95 997.31 996.75 996.92 997.26 997.94 998.59 999.68 1000.31 1000.90 1001.53 1002.24 1002.46 1003.48 1004.13 1004.28 1004.89 1004.82 1005.39 1005.85 1006.57 1007.19 1007.79 1008.24 1008.84 1009.26 1009.46 1009.35 1009.79 1010.25 1011.10 1011.55 1012.07 1012.77 1013.31 1013.95 1014.70
1008.41 1006.89 1005.24 1004.14 1002.85 1001.26 999.63 998.46 996.92 996.82 996.78 997.49 998.05 998.78 999.59 1000.60 1001.20 1001.91 1002.19 1003.27 1004.23 1004.05 1004.48 1004.87 1005.17 1005.62 1006.08 1006.63 1007.24 1007.85 1008.29 1008.50 1008.80 1008.90 1009.36 1009.95 1010.45 1010.97 1011.57 1012.20 1012.99 1013.39 1014.48
1008.78 1007.49 1006.01 1005.31 1004.23 1002.82 1001.47 1000.24 998.17 997.63 997.76 997.96 997.97 998.59 999.17 999.84 1000.09 1000.54 1000.22 1003.49 1003.62 1003.77 1003.99 1004.52 1005.04 1005.36 1005.90 1006.44 1006.77 1007.25 1007.52 1007.82 1007.90 1008.23 1008.88 1009.40 1009.88 1010.58 1011.27 1012.07 1013.32 1014.61 1015.51
1009.36 1008.46 1006.78 1006.83 1005.80 1004.20 1003.14 1002.31 1000.88 999.54 998.41 998.44 998.36 998.68 999.28 999.87 1000.45 1000.70 1001.31 1002.44 1003.02 1003.40 1003.91 1004.28 1004.67 1005.03 1005.64 1006.07 1006.46 1006.73 1007.00 1007.31 1007.79 1007.82 1008.38 1008.77 1009.12 1009.66 1010.49 1012.20 1013.90 1014.88 1015.46
1010.29 1009.41 1008.48 1008.12 1006.97 1005.58 1003.72 1002.83 1002.35 1001.84 1000.39 999.58 999.00 999.36 999.66 1000.26 1000.61 1000.10 1000.47 1001.84 1002.72 1003.32 1003.94 1004.51 1005.20 1005.93 1006.28 1006.44 1006.46 1006.37 1006.70 1006.84 1007.17 1007.44 1007.91 1008.18 1008.46 1009.15 1010.32 1011.89 1013.46 1014.87 1015.98
1011.32 1010.51 1010.13 1009.08 1007.67 1006.19 1005.66 1004.78 1003.07 1004.00 1002.28 1002.44 1001.81 1001.78 1001.86 1002.24 1001.85 1000.87 1000.58 1001.98 1002.81 1003.49 1004.44 1005.04 1005.76 1006.31 1006.58 1006.73 1006.40 1006.31 1006.15 1006.28 1006.28 1006.48 1007.09 1007.47 1007.70 1008.69 1010.01 1011.31 1012.98 1014.65 1016.24
1012.26 1011.81 1011.09 1010.11 1008.95 1007.89 1007.22 1006.19 1004.73 1005.32 1004.30 1004.02 1004.42 1003.91 1003.73 1003.31 1002.68 1001.86 1002.10 1003.11 1004.04 1004.85 1005.53 1006.03 1006.44 1007.02 1007.33 1007.20 1007.41 1007.15 1006.68 1006.31 1005.93 1005.72 1006.35 1006.84 1007.30 1007.60 1008.93 1010.93 1012.23 1013.26 1014.76
1013.26 1012.89 1012.15 1011.42 1010.50 1009.60 1008.92 1008.39 1007.93 1007.06 1006.73 1006.46 1006.03 1006.08 1005.84 1005.03 1004.59 1003.53 1003.51 1004.60 1005.48 1006.34 1006.84 1007.20 1007.64 1007.87 1007.89 1007.65 1007.82 1007.50 1007.50 1007.29 1007.08 1006.77 1006.72 1007.60 1007.44 1007.37 1008.23 1009.34 1011.31 1013.89 1015.27
1014.39 1013.89 1013.24 1012.46 1011.72 1010.87 1010.21 1009.83 1009.32 1008.84 1008.57 1008.35 1007.99 1007.53 1008.36 1006.18 1006.45 1005.89 1004.78 1005.71 1006.71 1007.47 1008.07 1008.49 1008.57 1008.72 1008.66 1008.25 1007.91 1008.15 1008.46 1008.68 1008.83 1008.68 1008.69 1008.86 1008.35 1008.35 1009.08 1010.08 1012.10 1013.22 1015.67
1015.44 1014.94 1014.29 1013.48 1012.73 1012.16 1011.69 1011.10 1010.77 1010.60 1010.75 1010.35 1009.72 1009.43 1009.25 1007.24 1007.84 1008.09 1006.16 1006.81 1007.56 1008.50 1009.04 1009.56 1009.67 1009.67 1009.37 1009.13 1008.80 1008.92 1009.26 1010.15 1009.83 1009.75 1009.79 1009.62 1010.00 1010.28 1010.30 1010.14 1010.73 1012.06 1014.02
1016.42 1015.78 1015.13 1014.47 1013.88 1013.37 1012.87 1012.38 1012.02 1011.86 1011.46 1011.07 1010.92 1010.74 1010.54 1009.45 1009.38 1009.03 1008.66 1008.47 1009.48 1009.80 1010.26 1010.59 1010.99 1010.83 1010.14 1010.08 1009.97 1010.23 1010.58 1010.89 1011.15 1011.15 1011.20 1011.57 1011.90 1012.09 1012.25 1012.27 1012.13 1012.42 1013.14
1017.01 1016.50 1016.05 1015.52 1014.97 1014.54 1013.97 1013.56 1013.19 1012.81 1012.61 1012.45 1012.36 1012.12 1011.83 1011.35 1011.24 1011.78 1010.38 1010.60 1011.24 1011.59 1011.84 1012.03 1012.05 1011.75 1011.32 1011.27 1011.50 1011.79 1011.94 1011.73 1011.87 1012.25 1012.51 1013.18 1013.63 1014.07 1014.21 1014.15 1014.17 1013.99 1014.51
1017.17 1016.98 1016.75 1016.54 1016.28 1015.79 1015.35 1014.89 1014.31 1013.96 1013.84 1013.68 1013.54 1013.37 1013.24 1012.98 1013.06 1013.08 1012.50 1012.25 1012.78 1012.81 1013.63 1013.55 1012.62 1012.65 1012.62 1012.52 1012.84 1013.11 1013.14 1013.09 1013.07 1013.17 1013.91 1014.69 1015.16 1015.36 1015.50 1015.36 1015.89 1015.60 1016.02
1017.49 1017.34 1017.17 1017.07 1017.09 1017.12 1016.87 1016.59 1016.42 1016.09 1015.64 1015.45 1015.18 1014.90 1014.96 1014.88 1014.50 1014.13 1013.71 1013.86 1013.78 1013.01 1015.08 1014.20 1013.42 1013.63 1013.52 1013.88 1013.88 1014.16 1014.56 1014.56 1014.60 1014.71 1015.23 1015.72 1015.88 1016.02 1016.35 1016.39 1016.94 1017.43 1017.47
1018.27 1018.19 1017.75 1017.71 1017.66 1017.78 1018.25 1018.33 1018.12 1018.25 1017.94 1017.47 1017.11 1017.10 1016.74 1016.57 1016.54 1016.06 1015.24 1015.09 1014.56 1014.91 1014.83 1015.12 1014.59 1014.43 1014.47 1014.80 1015.40 1015.05 1015.41 1015.68 1015.78 1016.06 1016.24 1016.52 1016.83 1016.81 1017.18 1017.61 1017.55 1018.21 1018.75
1019.26 1019.01 1019.09 1018.70 1018.48 1018.37 1018.42 1018.78 1019.33 1019.27 1019.27 1019.07 1018.78 1018.45 1018.31 1018.24 1017.69 1017.01 1016.42 1016.22 1015.99 1015.96 1015.80 1015.68 1015.37 1015.32 1015.84 1016.19 1016.42 1016.43 1016.26 1016.73 1016.92 1016.76 1016.70 1016.94 1017.12 1017.45 1017.68 1018.08 1018.46 1018.63 1019.16
1020.87 1020.36 1020.01 1019.80 1019.56 1019.41 1019.32 1019.24 1019.22 1019.72 1019.51 1019.59 1019.67 1019.50 1019.24 1018.82 1018.33 1017.99 1017.59 1017.25 1016.90 1016.47 1016.35 1016.42 1016.61 1016.81 1017.06 1017.29 1017.36 1017.45 1017.60 1017.89 1017.77 1017.58 1017.61 1017.74 1017.88 1017.93 1018.17 1018.49 1018.75 1019.12 1019.48
1022.00 1021.74 1021.24 1020.98 1020.77 1020.53 1020.40 1020.32 1020.12 1019.87 1019.62 1019.60 1020.00 1020.08 1020.03 1019.67 1019.25 1018.72 1018.07 1017.64 1017.56 1017.57 1017.67 1017.67 1017.85 1018.19 1018.26 1018.23 1018.24 1018.28 1018.37 1018.42 1018.28 1018.24 1018.38 1018.48 1018.60 1018.61 1018.86 1019.03 1019.38 1019.42 1019.68
1022.55 1022.33 1021.80 1021.54 1021.44 1021.24 1020.94 1020.75 1020.67 1020.42 1020.28 1020.32 1020.37 1020.36 1020.17 1020.00 1019.72 1019.50 1019.09 1018.74 1018.74 1018.87 1018.93 1019.05 1019.17 1019.35 1019.52 1019.52 1019.55 1019.57 1019.52 1019.44 1019.30 1019.25 1019.30 1019.33 1019.32 1019.43 1019.68 1020.05 1020.16 1020.28 1020.39
1022.61 1022.76 1022.36 1021.83 1021.65 1021.42 1021.23 1021.23 1021.10 1020.88 1020.77 1020.94 1021.40 1021.86 1021.42 1020.28 1020.08 1020.09 1020.20 1020.05 1019.81 1019.87 1019.95 1020.03 1020.31 1020.48 1020.59 1020.56 1020.53 1020.40 1020.23 1020.29 1020.18 1019.98 1020.17 1020.11 1020.20 1020.29 1020.49 1020.73 1020.79 1020.99 1021.30
1023.36 1023.05 1022.99 1022.53 1022.31 1022.28 1022.12 1021.80 1021.58 1021.39 1021.40 1021.49 1021.88 1022.66 1022.47 1021.40 1021.15 1021.13 1021.23 1021.51 1021.32 1021.22 1021.29 1021.12 1021.29 1021.46 1021.50 1021.42 1021.25 1021.28 1021.26 1021.23 1021.20 1021.11 1020.96 1021.04 1021.12 1021.12 1021.27 1021.54 1021.74 1021.91 1022.18
1024.25 1023.95 1023.54 1023.24 1023.22 1023.07 1022.91 1022.39 1022.31 1022.39 1022.47 1022.51 1022.39 1022.58 1022.70 1022.48 1022.24 1022.19 1022.46 1022.79 1022.76 1022.64 1022.34 1022.28 1022.26 1022.37 1022.58 1022.39 1022.24 1022.28 1022.24 1022.14 1022.11 1022.07 1022.14 1022.06 1021.97 1021.94 1021.89 1022.07 1022.36 1022.75 1022.96
1025.20 1024.96 1024.54 1024.19 1024.21 1023.99 1023.56 1023.47 1023.32 1023.33 1023.19 1023.12 1023.07 1023.11 1023.14 1023.28 1023.36 1023.38 1023.47 1023.67 1023.64 1023.75 1023.79 1023.39 1023.31 1023.38 1023.44 1023.46 1023.32 1023.09 1023.01 1023.26 1023.31 1023.02 1022.84 1022.74 1022.58 1022.61 1022.67 1022.75 1022.93 1023.05 1023.50
1026.00 1025.71 1025.37 1025.08 1025.04 1024.83 1024.54 1024.36 1024.02 1023.77 1023.76 1023.52 1023.42 1023.44 1023.50 1023.65 1023.79 1023.89 1024.13 1024.46 1024.42 1024.47 1024.51 1024.47 1024.56 1024.75 1024.43 1024.12 1024.11 1024.37 1024.60 1024.47 1024.32 1024.31 1023.76 1023.28 1023.49 1023.40 1023.42 1023.64 1023.75 1024.19 1024.27
1026.73 1026.47 1026.18 1025.98 1025.75 1025.58 1025.28 1024.98 1024.74 1024.50 1024.24 1024.04 1023.88 1023.85 1023.84 1023.89 1023.87 1023.94 1024.20 1024.56 1024.89 1024.74 1024.82 1024.92 1024.86 1025.10 1025.51 1025.51 1025.52 1025.80 1026.03 1025.85 1025.57 1025.37 1024.71 1024.26 1024.25 1024.25 1024.18 1024.11 1024.32 1024.73 1024.90
1027.16 1026.98 1026.75 1026.55 1026.32 1026.15 1025.94 1025.69 1025.46 1025.22 1024.90 1024.73 1024.57 1024.40 1024.29 1024.19 1024.17 1024.16 1024.24 1024.57 1024.84 1024.88 1025.10 1024.89 1025.05 1025.52 1025.66 1025.56 1026.06 1026.60 1026.64 1026.54 1026.24 1025.97 1025.35 1024.91 1024.79 1024.77 1024.99 1025.03 1025.33 1024.89 1025.18
Wind_Speed
18 16 18 19 20 16 11 13 13 14 16 15 14 14 15 16 12 10 14 13 13 10 10 11 10 10 9 8 8 8 8 7 6 4 7 7 11 12 10 10 9 10 6
17 16 17 18 19 16 15 18 9 12 13 15 12 14 16 15 13 10 3 3 12 12 12 10 10 9 13 12 8 10 10 11 10 10 10 7 9 13 12 12 9 6 7
16 17 16 18 18 17 16 16 10 9 6 6 10 14 15 16 16 14 21 23 18 15 11 11 9 11 8 7 9 9 9 6 6 4 5 7 7 11 10 6 9 9 9
19 18 17 18 18 15 14 14 15 13 5 8 11 10 10 12 16 17 14 11 10 10 10 10 11 10 11 11 10 10 10 8 8 8 7 7 9 12 8 11 7 5 7
16 17 17 15 14 15 15 13 15 16 15 12 2 5 3 3 2 10 12 10 8 8 4 5 6 5 7 6 5 10 10 10 9 9 8 6 8 8 11 8 8 9 7
15 17 17 17 16 19 15 13 16 14 18 16 15 10 8 5 8 8 9 7 7 7 6 5 5 6 5 10 9 13 9 13 12 10 11 11 11 12 10 10 10 6 5
15 15 16 16 16 17 17 17 18 15 16 17 16 14 12 10 13 13 16 10 9 9 8 6 5 4 3 2 6 8 13 13 4 11 14 13 13 13 13 14 12 9 5
17 16 15 15 15 15 15 16 15 14 15 13 16 14 12 12 16 17 20 13 12 12 11 9 6 5 5 2 5 8 11 14 12 6 6 4 3 5 13 10 12 9 10
15 15 15 15 15 16 16 16 16 15 15 14 14 17 12 16 20 14 15 13 13 14 13 12 8 6 8 4 8 9 10 11 16 23 23 22 22 18 8 13 9 12 4
14 14 14 13 14 15 15 14 13 12 12 11 15 16 19 19 25 19 17 9 13 10 11 12 19 11 12 11 8 7 11 7 7 10 9 16 17 17 19 7 10 12 7
12 13 14 14 14 14 12 13 10 11 11 13 14 15 17 20 22 29 24 13 9 10 9 10 9 19 21 21 17 10 8 8 11 10 10 10 11 12 10 9 9 5 6
10 13 14 16 12 12 15 12 13 11 12 12 12 11 11 15 26 25 30 27 19 11 10 9 12 23 25 24 16 20 18 11 9 10 11 11 10 10 10 11 13 13 11
9 10 11 13 14 14 15 15 13 13 12 12 11 11 11 11 9 18 25 25 22 12 8 13 20 21 22 19 24 21 13 8 9 11 11 10 9 7 8 11 11 15 15
13 13 12 11 13 15 12 12 13 13 11 11 11 11 10 10 11 10 9 8 10 11 4 7 11 13 15 13 11 13 9 9 9 9 9 8 7 7 9 8 9 9 10
12 13 12 10 11 10 12 12 11 13 15 11 9 10 10 11 11 15 14 8 8 8 6 6 7 8 9 9 8 9 7 6 7 7 8 7 7 7 8 6 8 8 9
12 10 11 10 9 9 8 7 17 19 22 23 23 17 9 16 18 18 18 15 13 10 6 7 8 8 9 8 8 8 8 9 7 6 6 7 7 7 8 7 7 8 8
12 12 9 10 10 10 9 9 9 8 18 20 19 21 21 18 17 16 13 15 17 8 7 7 7 7 7 7 7 7 7 6 6 7 7 7 7 7 7 7 7 7 7
10 11 8 9 9 8 8 8 7 8 9 8 11 12 15 17 18 18 15 11 9 10 8 8 7 7 7 6 6 6 6 6 6 6 6 6 6 6 6 6 6 7 7
9 8 7 6 7 6 7 7 7 7 8 8 8 11 10 7 12 15 15 8 8 8 8 8 7 7 6 6 6 6 7 6 5 5 5 5 5 6 6 6 6 6 6
7 10 10 8 7 8 7 7 7 7 7 7 8 10 10 9 8 9 9 8 8 7 7 7 6 6 6 5 5 4 4 4 4 5 5 5 5 5 5 5 5 5 5
8 8 10 8 8 8 8 7 8 7 7 7 6 6 10 8 7 7 8 8 8 7 7 6 5 5 5 5 5 4 5 5 4 4 4 5 4 5 5 5 5 5 4
8 8 8 7 8 7 7 8 7 7 7 7 7 4 7 7 7 6 7 6 6 7 7 6 6 6 7 6 5 4 4 4 3 4 4 3 4 4 4 4 4 5 4
8 8 8 8 8 10 7 8 7 7 7 6 6 5 5 5 5 6 6 5 6 6 6 6 5 4 4 5 6 6 5 5 5 5 2 2 2 3 3 4 3 4 4
8 9 9 8 7 8 8 8 8 8 6 6 6 5 5 5 4 4 4 5 5 4 5 4 5 7 4 3 4 5 6 5 3 3 6 2 4 1 4 3 4 4 3
7 8 8 8 8 8 8 8 8 8 8 7 7 6 6 5 4 3 3 3 3 4 3 2 4 3 5 6 8 8 7 7 6 6 1 3 5 4 4 2 2 3 4
7 7 7 6 7 7 7 8 8 8 8 7 7 7 6 6 6 5 2 1 2 2 2 1 2 4 1 4 7 6 5 6 6 6 6 3 2 3 2 3 0 1 3
Wind_Direction
336 337 339 339 335 332 304 243 231 221 223 206 171 185 185 188 183 191 180 210 215 200 205 205 209 204 211 202 203 210 212 210 218 217 198 181 189 188 177 195 199 196 177
339 340 350 345 340 339 340 328 255 231 227 194 175 186 186 191 186 189 191 274 232 217 212 203 212 219 211 209 205 211 217 217 221 196 199 178 190 194 186 180 204 210 101
349 352 359 349 343 344 345 337 306 233 201 209 188 193 198 193 171 169 163 216 218 218 208 211 205 209 209 211 210 219 223 224 214 177 177 187 191 182 178 115 112 92 93
355 357 4 344 343 350 349 349 354 349 189 190 203 189 197 198 189 177 167 182 195 196 194 201 210 212 219 219 218 224 220 216 212 205 194 184 183 179 159 130 113 117 111
359 2 3 346 348 1 4 349 21 5 17 356 55 52 19 83 201 170 150 159 166 177 120 83 63 34 19 318 272 223 215 217 204 195 198 180 179 160 160 152 131 121 97
6 9 359 354 360 6 7 14 38 17 30 19 23 28 62 42 349 58 98 107 86 91 94 77 60 25 2 12 305 257 254 212 205 195 189 188 178 163 151 145 140 133 125
12 7 2 3 7 13 8 15 26 19 35 31 17 27 20 31 23 80 83 79 76 65 59 48 41 36 328 72 34 45 44 35 1 201 193 192 180 167 149 151 168 156 128
15 8 6 9 13 16 19 24 23 25 32 46 32 17 21 27 29 71 84 83 75 66 54 43 34 15 357 142 99 73 60 48 27 29 73 61 69 88 157 157 139 103 91
16 11 7 11 16 21 26 27 28 29 27 31 41 39 13 36 33 37 86 83 76 65 57 45 40 29 18 95 101 87 76 63 53 65 70 64 61 60 95 123 136 132 113
14 12 12 15 20 27 24 27 30 39 39 38 42 42 26 39 38 36 58 72 75 70 62 50 47 49 52 55 77 88 83 47 51 50 42 42 43 48 43 47 155 154 124
17 19 20 20 23 20 25 29 27 35 39 40 41 40 34 40 40 42 51 57 59 67 61 57 50 57 66 66 68 66 78 91 68 67 63 54 45 42 42 36 50 86 110
23 25 28 22 19 26 24 23 32 31 38 40 42 43 38 44 49 45 54 57 56 59 61 64 66 64 65 65 64 72 75 76 78 72 66 60 58 51 45 53 56 66 58
38 42 34 40 29 25 33 28 25 29 30 34 35 37 31 28 42 47 55 59 57 63 51 67 67 65 63 61 60 56 52 59 73 75 73 72 65 70 69 64 51 62 62
33 32 36 39 48 38 30 35 34 27 27 33 27 31 31 29 28 18 37 43 45 61 29 46 65 64 64 59 61 59 52 55 63 75 79 74 71 69 70 71 70 65 61
35 28 31 36 33 55 55 42 42 39 36 29 30 36 29 30 27 34 36 31 30 26 42 34 55 53 47 55 44 55 57 56 71 76 75 75 69 73 71 57 77 80 88
29 31 25 27 27 33 32 67 61 66 50 43 41 40 44 39 36 39 42 42 34 30 55 46 47 54 55 56 54 48 56 53 50 66 76 84 89 87 89 87 89 95 102
26 19 26 25 25 23 23 24 21 80 78 61 41 37 36 34 29 24 29 44 33 44 58 54 50 47 55 55 55 58 62 56 65 68 75 76 82 91 94 94 95 96 95
24 25 25 27 21 19 20 19 20 19 16 26 61 50 35 31 30 27 21 38 39 43 41 47 51 49 49 55 57 59 63 61 60 69 70 78 83 92 97 100 100 110 113
36 16 7 27 26 20 18 22 22 22 21 22 18 15 18 31 36 32 27 40 43 46 43 46 45 44 47 54 54 49 42 46 64 69 73 74 71 79 78 72 71 79 106
26 38 3 15 14 12 14 10 15 16 22 23 30 8 354 1 20 27 31 24 32 35 36 47 48 46 40 45 45 57 80 79 73 74 72 70 78 86 93 103 107 105 91
4 7 2 7 8 8 356 4 7 10 12 13 52 32 343 347 15 20 27 19 17 26 20 24 38 38 41 37 41 41 40 50 60 70 73 80 65 81 81 87 89 96 105
5 358 357 3 354 5 350 354 9 0 5 358 1 51 0 15 9 16 31 19 16 10 13 17 24 26 21 20 28 43 43 62 60 60 63 73 90 90 91 91 97 102 115
4 2 355 360 3 342 358 350 353 350 350 358 353 3 6 14 17 14 25 15 15 16 11 6 25 21 35 28 19 16 37 40 24 4 69 84 100 109 120 111 107 117 101
6 1 357 358 5 347 353 339 341 345 338 340 345 349 358 360 4 19 37 21 4 28 21 39 37 13 9 23 50 54 35 16 38 30 343 48 74 73 81 97 80 71 120
7 358 358 352 353 348 340 342 339 339 336 332 339 337 339 340 335 338 28 51 360 342 62 337 19 110 73 40 52 55 48 39 30 321 40 10 53 41 51 82 76 104 67
348 351 342 339 341 340 339 335 337 332 328 333 329 327 330 329 327 325 351 316 293 314 317 356 86 43 344 138 95 86 64 43 30 5 323 97 155 119 171 112 21 174 122